Regional Weather Roundup
Issued by NWS

Home | Current Version | Previous Version | Text Only | Print | Product List | Glossary Off
Versions: 1 2 3 4 5 6 7 8 9 10 11 12 13 14 15 16 17 18 19 20 21 22 23 24 25 26 27 28 29 30 31 32 33 34 35 36 37 38 39 40 41 42 43 44 45 46 47 48 49 50

000
ASUS45 KABQ 282001
RWRNM
NEW MEXICO REGIONAL WEATHER ROUNDUP
NATIONAL WEATHER SERVICE ALBUQUERQUE NM
200 PM MDT TUE JUL 28 2015

NOTE: "FAIR" MEANS FEW OR NO CLOUDS BELOW 12,000 FEET AGL WITH NO
       SIGNIFICANT WEATHER OR OBSTRUCTIONS TO VISION.

      THIS PRODUCT IS RELEASED AS TWO VERSIONS.  ONE VERSION NEAR
      THE TOP OF THE HOUR CONTAINING PRELIMINARY DATA FROM ALBUQUERQUE
      AND OTHER STATIONS.  A FINAL VERSION WITH ADDITIONAL DATA IS
      ISSUED ABOUT 10 MINUTES AFTER THE HOUR.

NMZ501-503-504-510>518-282100-
NORTHWEST PLATEAU/NORTHCENTRAL MOUNTAINS

CITY           SKY/WX    TMP DP  RH WIND       PRES   REMARKS
FARMINGTON     SUNNY     92  22   8 W9        30.15F
SANTA FE       MOSUNNY   89  38  16 VRB5      30.18F
TAOS           PTSUNNY   84  37  18 SW12      30.28S

$$
NMZ402-403-502-505>509-282100-
WESTCENTRAL MOUNTAINS/SOUTHWEST MOUNTAINS

CITY           SKY/WX    TMP DP  RH WIND       PRES   REMARKS
GALLUP         PTSUNNY   85  40  20 NW8       30.24F
SILVER CITY      N/A     86  46  25 CALM      30.15F

$$
NMZ407-409-411-412-282100-
SOUTHERN DESERTS

CITY           SKY/WX    TMP DP  RH WIND       PRES   REMARKS
DEMING         SUNNY     95  50  21 VRB7      30.04F
ALAMOGORDO     MOSUNNY   95  52  23 SW8       30.03F
T OR C         PTSUNNY   94  48  20 SE9G16    30.06F

$$
NMZ519>523-282100-
CENTRAL VALLEYS/CENTRAL HIGHLANDS

CITY           SKY/WX    TMP DP  RH WIND       PRES   REMARKS
ALBUQUERQUE    MOSUNNY   92  43  18 VRB5      30.13F
DOUBLE EAGLE   MOSUNNY   90  46  22 W8        30.17F
CLINES CORNERS MOSUNNY   87  42  20 W8G16     30.23F
BELEN          FAIR      93  40  15 NW5       30.11F
SOCORRO        NOT AVBL

$$
NMZ524>526-539-540-282100-
SOUTHCENTRAL MOUNTAINS

CITY           SKY/WX    TMP DP  RH WIND       PRES   REMARKS
RUIDOSO          N/A    N/A N/A N/A MISG        N/A

$$
NMZ527>531-282100-
NORTHEAST HIGHLANDS/NORTHEAST PLAINS

CITY           SKY/WX    TMP DP  RH WIND       PRES   REMARKS
LAS VEGAS      CLOUDY    80  45  28 NW17      30.23F
RATON          MOSUNNY   85  44  23 VRB5      30.19F
CLAYTON        MOSUNNY   83  47  28 N15       30.15S

$$
NMZ532>537-282100-
EASTCENTRAL PLAINS

CITY           SKY/WX    TMP DP  RH WIND       PRES   REMARKS
TUCUMCARI      MOSUNNY   97  56  25 E9        29.99F HX  95
CANNON AFB     SUNNY     96  58  28 VRB5      30.02F HX  95
CLOVIS AIRPORT SUNNY     95  61  31 SE13      30.04F HX  95

$$
NMZ028-029-538-282100-
SOUTHEAST PLAINS

CITY           SKY/WX    TMP DP  RH WIND       PRES   REMARKS
ROSWELL        SUNNY    102  51  18 SE13G21   29.95F HX  99
ARTESIA        SUNNY    100  57  23 SE10      29.95F HX  99
CARLSBAD       SUNNY    100  54  21 VRB3G20   29.93F HX  98
HOBBS          SUNNY     95  54  24 VRB6      30.00F


$$


USA.gov is the U.S. government's official web portal to all federal, state and local government web resources and services.